| time (UTC) | temp F | wind direction | speed MPH | gust MPH | rain 1hr in | rain 24hr in | rain mn in | humidity % | barometer mb |
| 20260508124538 | 52 | 346 | 6.0 | 10.0 | 0.00 | 0.00 | 0.00 | 67 | 1017.2 |
| 20260508121534 | 43 | 28 | 1.0 | 4.0 | 0.00 | 0.00 | 0.00 | 72 | 1016.8 |
| 20260508120038 | 44 | 165 | 2.0 | 6.0 | 0.00 | 0.00 | 0.00 | 69 | 1016.7 |
| 20260508114645 | 44 | 164 | 3.0 | 6.0 | 0.00 | 0.00 | 0.00 | 68 | 1016.7 |
| 20260508113045 | 44 | 185 | 2.0 | 7.0 | 0.00 | 0.00 | 0.00 | 66 | 1016.6 |
| 20260508111533 | 44 | 162 | 5.0 | 7.0 | 0.00 | 0.00 | 0.00 | 68 | 1016.5 |
| 20260508110036 | 43 | 164 | 3.0 | 6.0 | 0.00 | 0.00 | 0.00 | 69 | 1016.4 |
| 20260508104529 | 42 | 185 | 2.0 | 6.0 | 0.00 | 0.00 | 0.00 | 70 | 1016.4 |
| 20260508103107 | 41 | 173 | 2.0 | 5.0 | 0.00 | 0.00 | 0.00 | 73 | 1016.4 |
| 20260508100036 | 41 | 158 | 2.0 | 5.0 | 0.00 | 0.00 | 0.00 | 75 | 1016.4 |
| 20260508094534 | 40 | 160 | 2.0 | 7.0 | 0.00 | 0.00 | 0.00 | 74 | 1016.3 |
| 20260508093033 | 41 | 151 | 0.0 | 2.0 | 0.00 | 0.00 | 0.00 | 72 | 1016.3 |
| 20260508091535 | 42 | 158 | 3.0 | 5.0 | 0.00 | 0.00 | 0.00 | 71 | 1016.3 |
| 20260508090035 | 42 | 163 | 3.0 | 6.0 | 0.00 | 0.00 | 0.00 | 70 | 1016.4 |
| 20260508084608 | 44 | 158 | 1.0 | 4.0 | 0.00 | 0.00 | 0.00 | 66 | 1016.4 |
| 20260508083035 | 44 | 156 | 2.0 | 6.0 | 0.00 | 0.00 | 0.00 | 64 | 1016.4 |
| 20260508081535 | 45 | 156 | 4.0 | 6.0 | 0.00 | 0.00 | 0.00 | 63 | 1016.5 |
| 20260508080037 | 45 | 161 | 4.0 | 6.0 | 0.00 | 0.00 | 0.00 | 64 | 1016.4 |
| 20260508074537 | 44 | 169 | 3.0 | 6.0 | 0.00 | 0.00 | 0.00 | 65 | 1016.4 |
| 20260508073036 | 46 | 152 | 4.0 | 6.0 | 0.00 | 0.00 | 0.00 | 62 | 1016.6 |
| 20260508071533 | 46 | 159 | 5.0 | 6.0 | 0.00 | 0.00 | 0.00 | 61 | 1016.6 |
| 20260508070035 | 47 | 156 | 3.0 | 6.0 | 0.00 | 0.00 | 0.00 | 60 | 1016.6 |
| 20260508064534 | 47 | 154 | 5.0 | 7.0 | 0.00 | 0.00 | 0.00 | 59 | 1016.7 |
| 20260508063141 | 47 | 154 | 5.0 | 7.0 | 0.00 | 0.00 | 0.00 | 59 | 1016.7 |
| 20260508061536 | 48 | 156 | 5.0 | 8.0 | 0.00 | 0.00 | 0.00 | 58 | 1016.8 |
| 20260508060035 | 49 | 183 | 3.0 | 7.0 | 0.00 | 0.00 | 0.00 | 56 | 1016.9 |
| 20260508054536 | 49 | 274 | 2.0 | 5.0 | 0.00 | 0.00 | 0.00 | 55 | 1016.9 |
| 20260508053035 | 50 | 22 | 1.0 | 4.0 | 0.00 | 0.00 | 0.00 | 53 | 1016.9 |
| 20260508051534 | 51 | 340 | 2.0 | 6.0 | 0.00 | 0.00 | 0.00 | 51 | 1016.9 |
| 20260508044610 | 52 | 53 | 1.0 | 5.0 | 0.00 | 0.00 | 0.00 | 48 | 1016.9 |
| 20260508043034 | 53 | 22 | 2.0 | 5.0 | 0.00 | 0.00 | 0.00 | 45 | 1016.8 |
| 20260508041532 | 54 | 14 | 2.0 | 7.0 | 0.00 | 0.00 | 0.00 | 43 | 1016.7 |
| 20260508034537 | 57 | 13 | 2.0 | 7.0 | 0.00 | 0.00 | 0.00 | 39 | 1016.3 |
| 20260508033035 | 59 | 337 | 5.0 | 9.0 | 0.00 | 0.00 | 0.00 | 35 | 1016.1 |
| 20260508031537 | 61 | 332 | 6.0 | 11.0 | 0.00 | 0.00 | 0.00 | 35 | 1015.9 |
| 20260508030036 | 61 | 318 | 7.0 | 15.0 | 0.00 | 0.00 | 0.00 | 36 | 1015.9 |
| 20260508024534 | 63 | 325 | 7.0 | 13.0 | 0.00 | 0.00 | 0.00 | 35 | 1015.9 |
| 20260508023108 | 64 | 322 | 8.0 | 13.0 | 0.00 | 0.00 | 0.00 | 35 | 1015.7 |
| 20260508021533 | 65 | 321 | 7.0 | 13.0 | 0.00 | 0.00 | 0.00 | 35 | 1015.7 |
| 20260508014641 | 67 | 309 | 7.0 | 16.0 | 0.00 | 0.00 | 0.00 | 35 | 1015.6 |
| 20260508013034 | 68 | 306 | 7.0 | 16.0 | 0.00 | 0.00 | 0.00 | 34 | 1015.7 |
| 20260508011535 | 69 | 295 | 8.0 | 18.0 | 0.00 | 0.00 | 0.00 | 33 | 1015.7 |
| 20260508010036 | 69 | 299 | 8.0 | 15.0 | 0.00 | 0.00 | 0.00 | 31 | 1015.7 |
| 20260508004533 | 69 | 301 | 10.0 | 19.0 | 0.00 | 0.00 | 0.00 | 30 | 1015.6 |
| 20260508003043 | 70 | 292 | 7.0 | 15.0 | 0.00 | 0.00 | 0.00 | 30 | 1015.7 |
| 20260508001534 | 70 | 291 | 8.0 | 26.0 | 0.00 | 0.00 | 0.00 | 30 | 1015.6 |
| 20260508000038 | 71 | 292 | 7.0 | 14.0 | 0.00 | 0.00 | 0.00 | 30 | 1015.6 |
| 20260507234537 | 71 | 310 | 8.0 | 21.0 | 0.00 | 0.00 | 0.00 | 29 | 1015.6 |
| 20260507231533 | 71 | 302 | 9.0 | 18.0 | 0.00 | 0.00 | 0.00 | 29 | 1015.7 |
| 20260507230034 | 71 | 299 | 10.0 | 18.0 | 0.00 | 0.00 | 0.00 | 28 | 1015.8 |
| 20260507224610 | 71 | 283 | 8.0 | 17.0 | 0.00 | 0.00 | 0.00 | 29 | 1015.9 |
| 20260507223032 | 70 | 294 | 7.0 | 17.0 | 0.00 | 0.00 | 0.00 | 30 | 1016.1 |
| 20260507221535 | 70 | 305 | 6.0 | 15.0 | 0.00 | 0.00 | 0.00 | 30 | 1016.3 |
| 20260507220142 | 69 | 304 | 8.0 | 18.0 | 0.00 | 0.00 | 0.00 | 31 | 1016.5 |
| 20260507214534 | 69 | 325 | 9.0 | 18.0 | 0.00 | 0.00 | 0.00 | 32 | 1016.5 |
| 20260507213035 | 69 | 308 | 8.0 | 18.0 | 0.00 | 0.00 | 0.00 | 33 | 1016.6 |
| 20260507210032 | 69 | 296 | 9.0 | 22.0 | 0.00 | 0.00 | 0.00 | 34 | 1016.8 |
| 20260507204530 | 69 | 300 | 7.0 | 18.0 | 0.00 | 0.00 | 0.00 | 36 | 1016.9 |
| 20260507203034 | 68 | 302 | 8.0 | 17.0 | 0.00 | 0.00 | 0.00 | 37 | 1017.0 |
| 20260507201533 | 68 | 298 | 9.0 | 18.0 | 0.00 | 0.00 | 0.00 | 36 | 1017.1 |
| 20260507200033 | 68 | 303 | 9.0 | 17.0 | 0.00 | 0.00 | 0.00 | 35 | 1017.3 |
| 20260507194611 | 68 | 294 | 9.0 | 19.0 | 0.00 | 0.00 | 0.00 | 35 | 1017.3 |
| 20260507193036 | 67 | 277 | 9.0 | 17.0 | 0.00 | 0.00 | 0.00 | 35 | 1017.4 |
| 20260507191535 | 67 | 281 | 10.0 | 18.0 | 0.00 | 0.00 | 0.00 | 36 | 1017.5 |
| 20260507190034 | 66 | 288 | 11.0 | 18.0 | 0.00 | 0.00 | 0.00 | 36 | 1017.5 |
| 20260507184607 | 64 | 287 | 11.0 | 20.0 | 0.00 | 0.00 | 0.00 | 39 | 1017.8 |
| 20260507181652 | 64 | 286 | 11.0 | 20.0 | 0.00 | 0.00 | 0.00 | 39 | 1018.0 |
| 20260507180035 | 64 | 284 | 10.0 | 16.0 | 0.00 | 0.00 | 0.00 | 41 | 1018.2 |
| 20260507174536 | 63 | 283 | 9.0 | 16.0 | 0.00 | 0.00 | 0.00 | 42 | 1018.4 |
| 20260507171539 | 61 | 308 | 8.0 | 18.0 | 0.00 | 0.00 | 0.00 | 50 | 1018.5 |
| 20260507170109 | 60 | 331 | 10.0 | 17.0 | 0.00 | 0.00 | 0.00 | 53 | 1018.4 |
| 20260507164537 | 59 | 326 | 8.0 | 15.0 | 0.00 | 0.00 | 0.00 | 54 | 1018.5 |
| 20260507163037 | 59 | 326 | 8.0 | 16.0 | 0.00 | 0.00 | 0.00 | 56 | 1018.5 |
| 20260507161539 | 58 | 332 | 10.0 | 16.0 | 0.00 | 0.00 | 0.00 | 57 | 1018.5 |
| 20260507154535 | 57 | 328 | 10.0 | 17.0 | 0.00 | 0.00 | 0.00 | 58 | 1018.7 |
| 20260507153036 | 57 | 322 | 9.0 | 15.0 | 0.00 | 0.00 | 0.00 | 58 | 1018.7 |
| 20260507151542 | 57 | 311 | 7.0 | 16.0 | 0.00 | 0.00 | 0.00 | 58 | 1018.8 |
| 20260507150048 | 56 | 312 | 6.0 | 11.0 | 0.00 | 0.00 | 0.00 | 62 | 1018.9 |
| 20260507144610 | 56 | 328 | 5.0 | 12.0 | 0.00 | 0.00 | 0.00 | 63 | 1018.8 |
| 20260507143037 | 55 | 342 | 3.0 | 14.0 | 0.00 | 0.00 | 0.00 | 66 | 1018.9 |
| 20260507141535 | 53 | 330 | 4.0 | 13.0 | 0.00 | 0.00 | 0.00 | 69 | 1018.7 |
| 20260507140036 | 52 | 294 | 5.0 | 12.0 | 0.00 | 0.00 | 0.00 | 71 | 1018.6 |
| 20260507134537 | 51 | 311 | 6.0 | 10.0 | 0.00 | 0.00 | 0.00 | 73 | 1018.6 |
| 20260507133033 | 51 | 318 | 5.0 | 8.0 | 0.00 | 0.00 | 0.00 | 74 | 1018.6 |